Regional Weather Roundup
Issued by NWS

Home | Current Version | Previous Version | Text Only | Print | Product List | Glossary On
Versions: 1 2 3 4 5 6 7 8 9 10 11 12 13 14 15 16 17 18 19 20 21 22 23 24 25 26 27 28 29 30 31 32 33 34 35 36 37 38 39 40 41 42 43 44 45 46 47 48 49 50
000
ASUS43 KMKX 291400
RWRWI

WISCONSIN REGIONAL WEATHER ROUNDUP
NATIONAL WEATHER SERVICE MILWAUKEE/SULLIVAN WI
900 AM CDT SAT AUG 29 2015

NOTE: "FAIR" INDICATES FEW OR NO CLOUDS BELOW 12,000 FEET WITH NO
SIGNIFICANT WEATHER AND/OR OBSTRUCTIONS TO VISIBILITY.

WIZ001-002-006>008-014>016-023>028-291500-
NORTHWEST WISCONSIN

CITY           SKY/WX    TMP DP  RH WIND       PRES   REMARKS
SUPERIOR ARPT  CLOUDY    60  57  91 SW7       30.03S
ASHLAND        MOSUNNY   62  59  90 SW7       30.03R
HAYWARD        SUNNY     60  55  83 SW6       30.06F
SIREN          MOSUNNY   59  56  90 SW3       30.06F
CUMBERLAND     FOG       55  54  94 S5        30.07R VSB 1/4
RICE LAKE      CLOUDY    57  55  94 S6        30.07S FOG
CHETEK         PTSUNNY  N/A N/A N/A CALM      30.06S
LADYSMITH      MOSUNNY   59  57  91 S3        30.07S
EAU CLAIRE     CLOUDY    57  55  94 SE8       30.05F
MENOMONIE      CLOUDY    58  57  96 SE3       30.06F FOG
NEW RICHMOND   CLOUDY    56  56  99 SE5       30.07S FOG
OSCEOLA        MOSUNNY   59  59 100 SE5       30.09S
$$

WIZ003>005-009-010-017-018-291500-
NORTH CENTRAL WISCONSIN

CITY           SKY/WX    TMP DP  RH WIND       PRES   REMARKS
MANITOWISH WTR MOSUNNY   58  56  94 SW3       30.06R
ARBOR VITAE    MOSUNNY   60  56  88 S3        30.06R
WOODRUFF       MOSUNNY   60  56  88 S3        30.06R
RHINELANDER    CLOUDY    59  57  93 S8        30.06S FOG
EAGLE RIVER    MOSUNNY   58  55  90 CALM      30.06R
LAND O LAKES   CLOUDY    59  55  87 SW6       30.06S
PHILLIPS       MOSUNNY   58  56  91 SW5       30.05R
TOMAHAWK       FOG       56  55  97 SE3       30.06S VSB 1
MEDFORD        FOG       57  57  99 CALM      30.07S VSB 3/4
MERRILL        CLOUDY    59  58  97 CALM      30.08R
$$

WIZ029-030-035-036-043>047-291500-
CENTRAL WISCONSIN

CITY           SKY/WX    TMP DP  RH WIND       PRES   REMARKS
WAUSAU         CLOUDY    61  58  90 SE6       30.04F
MOSINEE        CLOUDY    59  59 100 SE8       30.07F
MARSHFIELD     CLOUDY    61  57  87 SE7       30.06F FOG
STEVENS POINT  CLOUDY    57  57  98 E6        30.07F FOG
WAUPACA        CLOUDY    61  60  97 N5        30.08S FOG
WAUTOMA        NOT AVBL
WISC RAPIDS    CLOUDY    61  58  90 SE9       30.06F
CAMP DOUGLAS   CLOUDY    61  61 100 E7        30.03F
$$

WIZ011>013-019>022-031-037>040-048>050-291500-
NORTHEAST WISCONSIN

CITY           SKY/WX    TMP DP  RH WIND       PRES   REMARKS
ANTIGO         CLOUDY    58  58  97 S8        30.08S
SHAWANO        DRIZZLE   61  59  93 CALM      30.09S
OCONTO         CLOUDY    59  59 100 CALM      30.08S
STURGEON BAY   CLOUDY    59  55  88 SE6       30.10S
GREEN BAY      CLOUDY    61  59  93 NE5       30.08S FOG
MANITOWOC      CLOUDY    61  59  94 MISG      30.08F
APPLETON       CLOUDY    61  61 100 VRB6      30.06S
CLINTONVILLE   CLOUDY    59  59 100 CALM      30.08F FOG
OSHKOSH        CLOUDY    61  59  93 SE7       30.05F FOG
$$

WIZ032>034-041-042-053>061-291500-
SOUTHWEST WISCONSIN

CITY           SKY/WX    TMP DP  RH WIND       PRES   REMARKS
LA CROSSE      CLOUDY    63  58  83 VRB3      30.05R
SPARTA         CLOUDY    60  58  92 E6        30.05F
VIROQUA        CLOUDY    59  59 100 NE7       30.04S
BOSCOBEL       CLOUDY    64  62  93 VRB3      30.02S FOG
PRAIRIE DU CHI CLOUDY    62  61  96 N5        30.01R
PLATTEVILLE    CLOUDY    65  65  99 CALM      30.00S
$$

WIZ056-057-062-063-064-067-068-291500-
SOUTH CENTRAL WISCONSIN

CITY           SKY/WX    TMP DP  RH WIND       PRES   REMARKS
REEDSBURG      CLOUDY    60  60  99 NE8       30.03S
BARABOO/DELLS  CLOUDY    60  59  95 E7        30.04R FOG
LONE ROCK      NOT AVBL
MINERAL POINT  CLOUDY    64  63  94 CALM      30.00S FOG
MADISON        DRIZZLE   63  61  93 SE6       30.01F FOG
MIDDLETON      CLOUDY    64  64  99 SE5       30.02S
WATERTOWN      CLOUDY    61  61 100 E3        30.03S FOG
MONROE         CLOUDY    63  61  94 S7        30.00F FOG
JANESVILLE     NOT AVBL
$$

WIZ051-052-058>065-066-070>072-291500-
SOUTHEAST WISCONSIN

CITY           SKY/WX    TMP DP  RH WIND       PRES   REMARKS
MILWAUKEE      CLOUDY    62  60  93 SE9       30.04F FOG
WAUKESHA       DRIZZLE   59  57  94 E6        30.05F
MILWAUKEE/TIMM CLOUDY    61  57  88 CALM      30.05F FOG
RACINE         LGT RAIN  62  59  90 SE8       30.06F FOG
BURLINGTON     CLOUDY    59  59  98 SE5       30.03F FOG
KENOSHA        LGT RAIN  61  59  93 SE12      30.05F FOG
FOND DU LAC    LGT RAIN  61  59  93 E6        30.05F FOG
SHEBOYGAN      CLOUDY    61  60  97 E7        30.07S FOG
WEST BEND      CLOUDY    59  59 100 E3        30.05F FOG
JUNEAU         DRIZZLE   59  59  98 E7        30.05S
$$

LSZ147-162-291500-
LAKE SUPERIOR

STATION/POSITION TIME  TEMP    WIND        PRES    WAVE
                       AIR SEA DIR/SP/G            HT/PER
                 (UTC) (F)     (DEG/KT/KT) (MB)    (FT/S)
W MID LAKE BUOY  1250   56 54  270/ 10/ 14 1015.4R   3/ 4
DEVILS ISLAND    1300   57     250/ 17/ 19 1016.0R
PORT WING        1300   60     210/  3/  7 1016.9
SAXON HARBOR     1300   61     200/  2/  6 1016.3
$$

LMZ867-665-643>646-291500-
LAKE MICHIGAN

STATION/POSITION TIME  TEMP    WIND        PRES    WAVE
                       AIR SEA DIR/SP/G            HT/PER
                 (UTC) (F)     (DEG/KT/KT) (MB)    (FT/S)
CHAMBERS ISLAND  1300   60     200/  3/  5 1019.0R
S GREEN BAY BUOY 1300   60 62  130/  4/  4 1019.9F
N MID LAKE BUOY  1250   61 64  210/ 12/ 14 1018.6S   2/ 4
NORTHPORT PIER   1300   61     150/  3/  6 1019.0R
SISTER BAY       1319   61     180/  5/  5   N/A
ALGOMA LAKESHORE 1314             CALM       N/A
SHEBOYGAN LAKESH 1300   54      90/  5/  6 1018.7F
PORT WASHINGTON  1340   58     170/  4/ 10 1018.3F
ATWATER BUOY     1300   52 48  150/  2/  4 1019.0F
MILWAUKEE LAKESH 1300   58     150/  5/  6   N/A
S MID LAKE BUOY  1250   67 68  210/  4/  8 1018.5R   2/ 3
KENOSHA   LAKESH 1300   60     120/  6/  6 1017.9F
$$

TC  - TEMPERATURE IN CELSIUS
VSB - VISIBILITY IN STATUTE MILES
WCI - WIND CHILL INDEX
HX  - HEAT INDEX




USA.gov is the U.S. government's official web portal to all federal, state and local government web resources and services.